Overview Statistics Trail Chart Weather Telemetry Raw packets
 

This is the latest recevied weather packets stored in our database for station/object KB4MLW-13. If no packets are shown the sender has not sent any weather packets the latest 10 day(s).

<< 49 50 51 52 53 54 55 >>
Time Temp. Humidity Pressure Rain* Wind** Luminosity Snow
1788300510 33.33° C 63% 1000.3 hPa 0 mm - - -
1788300448 33.33° C 61% 1000.4 hPa 0 mm - - -
1788300358 33.33° C 65% 1000.4 hPa 0 mm - - -
1788300270 33.33° C 61% 1000.3 hPa 0 mm - - -
1788300179 33.33° C 61% 1000.2 hPa 0 mm - - -
1788300118 33.33° C 61% 1000.2 hPa 0 mm - - -
1788300058 33.33° C 61% 1000.4 hPa 0 mm - - -
1788299968 33.33° C 67% 1000 hPa 0 mm - - -
1788299879 33.33° C 65% 1000.2 hPa 0 mm - - -
1788299818 33.33° C 67% 1000.4 hPa 0 mm - - -
1788299758 33.33° C 65% 1000.2 hPa 0 mm - - -
1788299698 33.33° C 67% 1000.2 hPa 0 mm - - -
1788299638 32.78° C 64% 1000.3 hPa 0 mm - - -
1788299459 33.33° C 63% 1000.1 hPa 0 mm - - -
1788299398 33.33° C 62% 1000.2 hPa 0 mm - - -
1788299309 33.33° C 62% 1000.3 hPa 0 mm - - -
1788299219 33.33° C 65% 1000.3 hPa 0 mm - - -
1788299158 33.33° C 64% 1000.4 hPa 0 mm - - -
1788299068 33.33° C 65% 1000.1 hPa 0 mm - - -
1788299008 33.33° C 65% 1000.1 hPa 0 mm - - -
1788298948 33.33° C 61% 1000.1 hPa 0 mm - - -
1788298888 33.33° C 59% 1000.2 hPa 0 mm - - -
1788298828 33.89° C 60% 1000 hPa 0 mm - - -
1788298768 33.89° C 64% 1000.1 hPa 0 mm - - -
1788298680 33.89° C 60% 1000.1 hPa 0 mm - - -

* Rain latest hour (hover to see other rain measurements)
** Current wind speed in m/s (hover to see current wind gust speed)